STARLINK-33578, 63368

Orbit data source: Space-Track

STARLINK-33578, 63368 is a payload satellite owned by SpaceX/Seattle (US) in LEO that was launched on Wed, 26 Mar 2025 UTC via an FALCON 9 launch vehicle from the Air Force Western Test Range (AFWTR). Payload-class satellites include a variety of spacecraft equipped with specific instruments for various scientific and technological missions. These include communications satellites like Starlink; space stations such as the ISS; scientific satellites like the Hubble; Earth observation satellites from companies like Planet Labs, Umbra, and HawkEye 360; GPS; miniature CubeSats for education and research; and military/defense satellites.

Loading next visibility...
Identifier
63368, 2025-063F
Orbit
LEO
Country
Flag of USUS
Related business
Manufacturer
SpaceX/Seattle
Mission
Operational Commercial Communications
Bus & Motor
STARLINK V2MO, Unknown motor
Mass
575 kg wet, ~530 kg dry
Launch date (UTC)
2025-03-26 (1 year ago)
Launch vehicle
FALCON 9
Launch site
Air Force Western Test Range (AFWTR)
Object type
Payload
Rocket body
Debris
Shape & HBR
Box + 2 Pan, 17.7 m
Radar Cross Section
36.964 m², Large (>1 m²)

Expand to show TLE details & history
Last TLE update: 1 day ago

TLE from 1 day ago
0 STARLINK-33578
1 63368U 25063F   26170.66112452  .00021983  00000-0  65996-3 0  9996
2 63368  53.1605 295.8474 0001269  88.6613 271.4535 15.34394253 70358
Epoch: 2026-06-19T15:52Z
TLE epoch observation values (Epoch: 2026-06-19T15:52:01.158Z)
Latitude
-0.00002°
Longitude
149.95566°
Altitude
463.6 km
Speed
7.636 km/s
True Right ascension
19h 43m 23s
True Declination
0° 00' 00"
Sunlit
Object was in full shadow at epoch
Visualization orbit readout
Latitude
Unknown
Longitude
Unknown
Altitude
Unknown
Speed
Unknown
Apparent Right ascension
Unknown
Apparent Declination
Unknown
Sunlit
N/A
Visualization observer readout
Local Sidereal Time
07:16:45
Azimuth
Unknown
Elevation
Unknown
Doppler factor
Unknown
Orbital elements
Apogee altitude
463.845 km
Perigee altitude
462.109 km
Semi-major axis
6,841.114 km
Eccentricity
0.00013
Inclination
53.1605°
RAAN
295.8474°
Arg. of periapsis
88.6613°
True anomaly
271.43896°
Mean anomaly
271.4535°
Eccentric anomaly
271.44623°
Mean motion
3.83577 °/min
Orbital period
93.85 mins
BSTAR
0.00065996
Loading maneuver chart data...
Computing Atmospheric mass density...
Loading historical data...
Loading historical data...
Loading historical data...
Loading historical data...
Loading historical data...
Loading historical data...
Loading historical data...

Documentation

Showing up to 5 results
|